Location: Atlantic Beach
(40.5890°N, 73.7290°W)
Time: 07:29:46
(UTC+00:00)

N. Korean satellite - Pass Details

Date: 24 January 2021
Orbit: 451 x 502 km, 97.2° (Epoch: 04 March)

Event Time Altitude Azimuth Distance (km) Brightness Sun altitude
Rises 11:27:05 0° 350° (N) 2,508 9.9 -8.6°
Reaches altitude 10° 11:30:03 10° 322° (NW) 1,615 8.7 -8.1°
Maximum altitude 11:31:41 13° 294° (WNW) 1,432 8.3 -7.8°
Drops below altitude 10° 11:33:15 10° 266° (W) 1,586 8.6 -7.5°
Sets 11:36:13 0° 236° (WSW) 2,458 9.8 -7.0°
